NOAA 17 DEB, 48765

Orbit data source: Space-Track

NOAA 17 DEB, 48765 is space debris in SSO originally from a launch on Mon, 24 Jun 2002 UTC launched from the Air Force Western Test Range (AFWTR). Debris objects in space refer to the collection of defunct objects orbiting the Earth. Examples of debris include non-operational satellites, rocket bodies, and fragments generated from explosions, collisions, or faulty payload assembly.

Loading next visibility...
Identifier
48765, 2002-032DA
Orbit
SSO
Country
Flag of USUS
Related business
Manufacturer
Unknown
Mission
Spacecraft
Bus & Motor
Unknown
Mass
Unknown
Launch date (UTC)
2002-06-24 (24 years ago)
Launch vehicle
Unknown
Launch site
Air Force Western Test Range (AFWTR)
Object type
Payload
Rocket body
Debris
Shape & HBR
Unknown shape, 0.1 m
Radar Cross Section
Medium (>0.1 m² and <1 m²)

Expand to show TLE details & history
Last TLE update: 2 days ago

TLE from 2 days ago
0 NOAA 17 DEB
1 48765U 02032DA  26171.02972184  .00020801  00000-0  22455-2 0  9998
2 48765  98.6885 200.2439 0006688 281.3441  78.7021 14.88377345274072
Epoch: 2026-06-20T00:42Z
TLE epoch observation values (Epoch: 2026-06-20T00:42:47.966Z)
Latitude
-0.0001°
Longitude
-78.70615°
Altitude
605.101 km
Speed
7.557 km/s
True Right ascension
13h 20m 58s
True Declination
0° 00' 00"
Sunlit
Object was in daylight at epoch
Visualization orbit readout
Latitude
Unknown
Longitude
Unknown
Altitude
Unknown
Speed
Unknown
Apparent Right ascension
Unknown
Apparent Declination
Unknown
Sunlit
N/A
Visualization observer readout
Local Sidereal Time
21:35:43
Azimuth
Unknown
Elevation
Unknown
Doppler factor
Unknown
Orbital elements
Apogee altitude
604.739 km
Perigee altitude
595.405 km
Semi-major axis
6,978.209 km
Eccentricity
0.00067
Inclination
98.6885°
RAAN
200.2439°
Arg. of periapsis
281.3441°
True anomaly
78.77727°
Mean anomaly
78.7021°
Eccentric anomaly
78.73968°
Mean motion
3.72329 °/min
Orbital period
96.69 mins
BSTAR
0.0022455
Loading maneuver chart data...
Computing Atmospheric mass density...

Documentation

Showing up to 5 results
|